Regional Weather Roundup
Issued by NWS

Home | Current Version | Previous Version | Text Only | Print | Product List | Glossary Off
Versions: 1 2 3 4 5 6 7 8 9 10 11 12 13 14 15 16 17 18 19 20 21 22 23 24 25 26 27 28 29 30 31 32 33 34 35 36 37 38 39 40 41 42 43 44 45 46 47 48 49 50

000
ASUS43 KLMK 292102
RWRKY
KENTUCKY REGIONAL WEATHER ROUNDUP
NATIONAL WEATHER SERVICE LOUISVILLE KY
500 PM EDT MON MAY 29 2017

NOTE "FAIR" INDICATES FEW OR NO CLOUDS BELOW 12,000 FEET
WITH NO SIGNIFICANT WEATHER AND/OR OBSTRUCTIONS TO VISIBILITY.

KYZ001>023-026-027-061>063-070>075-292200-
WESTERN AND SOUTH CENTRAL KENTUCKY

CITY           SKY/WX    TMP DP  RH WIND       PRES   REMARKS
PADUCAH        CLOUDY    84  51  31 W15G21    29.93F
HENDERSON      MOSUNNY   83  57  41 SW15      29.92F
OWENSBORO      CLOUDY    84  54  35 SW14      29.92F
HOPKINSVILLE   MOSUNNY   82  56  40 SW9       29.96F
BOWLING GREEN  MOSUNNY   82  57  42 SW13      29.96F
GLASGOW        NOT AVBL
$$

KYZ024-025-028>034-038-045-046-053-292200-
NORTH CENTRAL KENTUCKY

CITY           SKY/WX    TMP DP  RH WIND       PRES   REMARKS
LOUISVILLE/SDF PTSUNNY   83  53  35 SW14      29.92F
LOUISVILLE/LOU MOSUNNY   83  53  35 W15G23    29.93F
FORT KNOX      SUNNY     80  56  42 SW8       29.93F
$$

KYZ035>037-039>044-047>052-055>060-089>105-292200-
NORTHEAST KENTUCKY

CITY           SKY/WX    TMP DP  RH WIND       PRES   REMARKS
LEXINGTON      MOSUNNY   81  54  39 SW10      29.97F
COVINGTON      PTSUNNY   80  53  39 SW12G20   29.93F
FRANKFORT      MOSUNNY   82  55  39 SW10      29.94F
$$

KYZ054-064>069-076>088-106>120-292200-
SOUTHEAST KENTUCKY

CITY           SKY/WX    TMP DP  RH WIND       PRES   REMARKS
JACKSON        CLOUDY    77  59  53 S3        30.00F
LONDON         CLOUDY    77  56  48 SW9       30.01F
SOMERSET       PTSUNNY   73  57  56 S6        30.01F
MIDDLESBORO    CLOUDY    77  63  63 S7        30.02F
MONTICELLO     CLOUDY    78  62  57 VRB3G17   30.02F
$$





USA.gov is the U.S. government's official web portal to all federal, state and local government web resources and services.